| time (UTC) | temp F | wind direction | speed knots | gust knots | rain 1hr in | rain 24hr in | rain mn in | humidity % | barometer mb |
| 20260902220045 | 88 | 236 | 1.7 | 6.1 | 0.00 | 0.01 | 0.00 | 64 | 1012.7 |
| 20260902214543 | 88 | 328 | 1.7 | 5.2 | 0.00 | 0.05 | 0.00 | 64 | 1012.7 |
| 20260902213049 | 89 | 260 | 3.5 | 10.4 | 0.00 | 0.05 | 0.00 | 61 | 1013.0 |
| 20260902211544 | 90 | 243 | 4.3 | 10.4 | 0.00 | 0.05 | 0.00 | 58 | 1012.9 |
| 20260902210045 | 89 | 252 | 3.5 | 10.4 | 0.00 | 0.05 | 0.00 | 59 | 1012.9 |
| 20260902204551 | 90 | 259 | 5.2 | 10.4 | 0.00 | 0.07 | 0.00 | 57 | 1013.0 |
| 20260902203048 | 89 | 193 | 3.5 | 9.6 | 0.00 | 0.07 | 0.00 | 63 | 1012.6 |
| 20260902201553 | 89 | 333 | 2.6 | 7.0 | 0.00 | 0.07 | 0.00 | 64 | 1012.8 |
| 20260902200045 | 89 | 255 | 2.6 | 7.0 | 0.00 | 0.07 | 0.00 | 65 | 1013.0 |
| 20260902194541 | 89 | 250 | 3.5 | 7.0 | 0.00 | 0.07 | 0.00 | 64 | 1013.1 |
| 20260902193046 | 89 | 250 | 1.7 | 8.7 | 0.00 | 0.07 | 0.00 | 64 | 1013.2 |
| 20260902191543 | 89 | 252 | 1.7 | 6.1 | 0.00 | 0.07 | 0.00 | 68 | 1013.3 |
| 20260902190040 | 88 | 238 | 1.7 | 6.1 | 0.00 | 0.07 | 0.00 | 68 | 1013.4 |
| 20260902184540 | 89 | 159 | 0.0 | 1.7 | 0.00 | 0.07 | 0.00 | 67 | 1013.5 |
| 20260902183048 | 87 | 248 | 0.9 | 7.0 | 0.00 | 0.07 | 0.00 | 67 | 1013.6 |
| 20260902181553 | 87 | 259 | 1.7 | 4.3 | 0.00 | 0.07 | 0.00 | 67 | 1013.7 |
| 20260902180040 | 86 | 276 | 0.9 | 5.2 | 0.00 | 0.07 | 0.00 | 68 | 1013.8 |
| 20260902174539 | 86 | 227 | 2.6 | 7.0 | 0.00 | 0.07 | 0.00 | 66 | 1014.0 |
| 20260902173047 | 86 | 183 | 0.9 | 4.3 | 0.00 | 0.07 | 0.00 | 65 | 1014.0 |
| 20260902171559 | 86 | 285 | 1.7 | 4.3 | 0.00 | 0.07 | 0.00 | 65 | 1014.0 |
| 20260902170050 | 86 | 0 | 0.9 | 3.5 | 0.00 | 0.07 | 0.00 | 64 | 1014.1 |
| 20260902164545 | 85 | 256 | 0.0 | 2.6 | 0.00 | 0.07 | 0.00 | 66 | 1014.4 |
| 20260902163042 | 83 | 102 | 0.0 | 4.3 | 0.00 | 0.07 | 0.00 | 69 | 1014.6 |
| 20260902161543 | 82 | 143 | 1.7 | 7.0 | 0.00 | 0.07 | 0.00 | 70 | 1013.9 |
| 20260902154545 | 81 | 155 | 2.6 | 5.2 | 0.00 | 0.07 | 0.00 | 70 | 1014.3 |
| 20260902153041 | 80 | 60 | 2.6 | 6.1 | 0.00 | 0.07 | 0.00 | 72 | 1014.5 |
| 20260902151555 | 79 | 0 | 0.9 | 6.1 | 0.00 | 0.07 | 0.00 | 73 | 1014.6 |
| 20260902150048 | 79 | 77 | 0.9 | 3.5 | 0.00 | 0.07 | 0.00 | 74 | 1014.6 |
| 20260902144543 | 77 | 56 | 2.6 | 4.3 | 0.00 | 0.07 | 0.00 | 76 | 1014.6 |
| 20260902143045 | 76 | 122 | 1.7 | 4.3 | 0.00 | 0.07 | 0.00 | 76 | 1014.7 |
| 20260902141540 | 76 | 67 | 0.9 | 3.5 | 0.00 | 0.07 | 0.00 | 76 | 1015.0 |
| 20260902140047 | 76 | 131 | 0.9 | 5.2 | 0.00 | 0.07 | 0.00 | 75 | 1015.2 |
| 20260902134544 | 77 | 108 | 1.7 | 6.1 | 0.00 | 0.07 | 0.00 | 74 | 1015.0 |
| 20260902133047 | 76 | 57 | 2.6 | 5.2 | 0.00 | 0.07 | 0.00 | 77 | 1015.0 |
| 20260902131551 | 76 | 70 | 3.5 | 7.0 | 0.00 | 0.07 | 0.00 | 77 | 1015.4 |
| 20260902130045 | 76 | 56 | 1.7 | 4.3 | 0.00 | 0.07 | 0.00 | 79 | 1015.5 |
| 20260902124543 | 76 | 65 | 2.6 | 4.3 | 0.00 | 0.07 | 0.00 | 81 | 1015.4 |
| 20260902123046 | 75 | 0 | 0.9 | 5.2 | 0.00 | 0.07 | 0.00 | 84 | 1015.7 |
| 20260902121540 | 75 | 0 | 0.9 | 6.1 | 0.00 | 0.07 | 0.00 | 86 | 1015.6 |
| 20260902120046 | 74 | 0 | 0.0 | 3.5 | 0.00 | 0.07 | 0.00 | 86 | 1015.2 |
| 20260902114552 | 74 | 293 | 0.0 | 5.2 | 0.00 | 0.07 | 0.00 | 84 | 1015.3 |
| 20260902113040 | 73 | 0 | 0.0 | 0.0 | 0.00 | 0.07 | 0.00 | 83 | 1014.9 |
| 20260902111550 | 73 | 0 | 0.0 | 0.0 | 0.00 | 0.07 | 0.00 | 83 | 1014.0 |
| 20260902110058 | 73 | 0 | 0.0 | 0.0 | 0.00 | 0.07 | 0.00 | 83 | 1013.9 |
| 20260902104543 | 73 | 0 | 0.0 | 0.0 | 0.00 | 0.07 | 0.00 | 83 | 1014.2 |
| 20260902103042 | 73 | 0 | 0.0 | 0.0 | 0.00 | 0.07 | 0.00 | 83 | 1014.1 |
| 20260902101543 | 73 | 0 | 0.0 | 0.0 | 0.00 | 0.07 | 0.00 | 83 | 1014.2 |
| 20260902100043 | 73 | 0 | 0.0 | 0.0 | 0.00 | 0.07 | 0.00 | 83 | 1014.3 |
| 20260902094545 | 74 | 0 | 0.0 | 0.0 | 0.00 | 0.07 | 0.00 | 83 | 1014.5 |
| 20260902093047 | 73 | 0 | 0.0 | 0.0 | 0.00 | 0.07 | 0.00 | 84 | 1014.4 |
| 20260902091541 | 73 | 0 | 0.0 | 0.0 | 0.00 | 0.07 | 0.00 | 84 | 1014.4 |
| 20260902090043 | 74 | 0 | 0.0 | 0.0 | 0.00 | 0.07 | 0.00 | 84 | 1014.1 |
| 20260902084556 | 74 | 0 | 0.0 | 0.0 | 0.00 | 0.07 | 0.00 | 85 | 1014.1 |
| 20260902083047 | 74 | 0 | 0.0 | 0.0 | 0.00 | 0.07 | 0.00 | 85 | 1014.3 |
| 20260902081545 | 74 | 0 | 0.0 | 0.0 | 0.00 | 0.07 | 0.00 | 85 | 1014.0 |
| 20260902080055 | 75 | 0 | 0.0 | 0.0 | 0.00 | 0.07 | 0.00 | 85 | 1013.8 |
| 20260902074546 | 75 | 0 | 0.0 | 0.0 | 0.00 | 0.07 | 0.00 | 86 | 1014.2 |
| 20260902073046 | 76 | 0 | 0.0 | 0.0 | 0.00 | 0.07 | 0.00 | 86 | 1014.1 |
| 20260902071542 | 76 | 0 | 0.0 | 1.7 | 0.00 | 0.07 | 0.00 | 86 | 1014.1 |
| 20260902070044 | 76 | 0 | 0.0 | 0.0 | 0.00 | 0.07 | 0.00 | 86 | 1014.1 |
| 20260902064540 | 76 | 0 | 0.0 | 0.0 | 0.00 | 0.07 | 0.00 | 86 | 1013.9 |
| 20260902063043 | 76 | 0 | 0.0 | 0.0 | 0.00 | 0.07 | 0.00 | 85 | 1013.9 |
| 20260902060048 | 76 | 0 | 0.0 | 0.0 | 0.00 | 0.07 | 0.00 | 85 | 1014.4 |
| 20260902054547 | 76 | 0 | 0.0 | 0.0 | 0.00 | 0.07 | 0.00 | 86 | 1014.4 |
| 20260902053041 | 76 | 0 | 0.0 | 0.0 | 0.00 | 0.07 | 0.00 | 86 | 1014.2 |
| 20260902051547 | 76 | 0 | 0.0 | 0.0 | 0.00 | 0.07 | 0.00 | 86 | 1014.0 |
| 20260902050042 | 77 | 0 | 0.0 | 0.0 | 0.00 | 0.07 | 0.00 | 86 | 1013.8 |
| 20260902044540 | 77 | 0 | 0.0 | 0.0 | 0.00 | 0.07 | 0.07 | 86 | 1014.1 |
| 20260902043057 | 77 | 0 | 0.0 | 0.0 | 0.00 | 0.07 | 0.07 | 87 | 1013.9 |
| 20260902041546 | 77 | 0 | 0.0 | 0.0 | 0.00 | 0.07 | 0.07 | 86 | 1014.0 |
| 20260902040044 | 77 | 215 | 0.0 | 0.9 | 0.00 | 0.07 | 0.07 | 86 | 1013.9 |
| 20260902034542 | 77 | 0 | 0.0 | 0.0 | 0.00 | 0.07 | 0.07 | 86 | 1013.6 |
| 20260902033057 | 77 | 0 | 0.0 | 0.9 | 0.00 | 0.07 | 0.07 | 86 | 1013.7 |
| 20260902031545 | 77 | 0 | 0.0 | 0.0 | 0.00 | 0.07 | 0.07 | 86 | 1014.0 |
| 20260902030042 | 77 | 0 | 0.0 | 0.0 | 0.00 | 0.07 | 0.07 | 86 | 1014.0 |
| 20260902024542 | 77 | 0 | 0.0 | 0.9 | 0.00 | 0.07 | 0.07 | 86 | 1014.1 |
| 20260902023049 | 77 | 0 | 0.0 | 0.0 | 0.00 | 0.07 | 0.07 | 87 | 1014.3 |
| 20260902021543 | 77 | 0 | 0.0 | 0.0 | 0.00 | 0.07 | 0.07 | 87 | 1014.4 |
| 20260902020042 | 78 | 0 | 0.0 | 0.0 | 0.00 | 0.07 | 0.07 | 87 | 1014.3 |
| 20260902014540 | 78 | 0 | 0.0 | 0.0 | 0.00 | 0.07 | 0.07 | 87 | 1014.3 |
| 20260902013044 | 78 | 0 | 0.0 | 0.0 | 0.00 | 0.07 | 0.07 | 87 | 1014.0 |
| 20260902011542 | 78 | 0 | 0.0 | 0.0 | 0.00 | 0.07 | 0.07 | 87 | 1014.0 |
| 20260902010046 | 78 | 0 | 0.0 | 0.0 | 0.00 | 0.07 | 0.07 | 87 | 1013.9 |
| 20260902004549 | 78 | 0 | 0.0 | 0.0 | 0.00 | 0.07 | 0.07 | 87 | 1013.7 |
| 20260902003048 | 79 | 0 | 0.0 | 0.0 | 0.00 | 0.07 | 0.07 | 86 | 1013.6 |
| 20260902001540 | 79 | 0 | 0.0 | 0.0 | 0.00 | 0.07 | 0.07 | 86 | 1013.7 |
| 20260902000051 | 79 | 0 | 0.0 | 0.9 | 0.00 | 0.07 | 0.07 | 86 | 1013.7 |
| 20260901234549 | 79 | 0 | 0.0 | 0.9 | 0.00 | 0.07 | 0.07 | 86 | 1013.6 |
| 20260901233046 | 79 | 0 | 0.0 | 0.0 | 0.00 | 0.07 | 0.07 | 85 | 1013.5 |
| 20260901231545 | 79 | 0 | 0.0 | 0.9 | 0.00 | 0.07 | 0.07 | 85 | 1013.0 |
| 20260901230046 | 79 | 0 | 0.0 | 0.9 | 0.01 | 0.07 | 0.07 | 84 | 1013.3 |
| 20260901224542 | 79 | 230 | 0.0 | 2.6 | 0.01 | 0.07 | 0.07 | 82 | 1013.7 |
| 20260901223043 | 79 | 250 | 0.9 | 3.5 | 0.01 | 0.07 | 0.07 | 81 | 1014.1 |
| 20260901221608 | 78 | 0 | 0.0 | 2.6 | 0.05 | 0.07 | 0.07 | 84 | 1013.9 |